Starlink 3572

operational
NORAD ID: 51879 Int'l Des: 2022-022 Owner: SPXS Country: US Constellation: starlink
LEOCIRCULAR

Starlink 3572について

説明を読み込み中...

リアルタイム位置

3D地球を読み込み中...

次回通過

高度履歴

Altitude vs Time

uPlot chart will show altitude changes over time

軌道要素

1 51879U 22022AD 25306.46751484 .00013239 00000-0 84793-3 0 9995
2 51879 53.2167 210.2443 0001475 94.2501 265.8660 15.08858747204046
Epoch: Nov 2, 2025 • Age: 35 hours

現在のステータス

高度 539.6 km
速度 7.60 km/s
衛星直下点 13.93°N, 163.17°W
打ち上げ日 Mar 3, 2022
運用期間 3.6 years
タイプ internet

技術仕様

分類 Payload
質量 297.00 kg
乾燥質量 275.00 kg
総質量 297.00 kg
長さ 0.20 m
直径 2.80 m
スパン 9.00 m
形状 Box + pan
製造者 SPXS
バスタイプ Starlink
フェーズステータス In Orbit
所有者/国 SPXS/US

大規模コンステレーション

Loading constellations...